Auburn, IN

2:59 PM EDT on March 29, 2017 (GMT -0400)
Auburn

Weather History for KGWB - April, 2014

Change the Weather History Date:

Sunday, April 6, 2014

  Actual Average (KFWA) Record (KFWA)
Temperature  
Mean Temperature 40 °F -  
Max Temperature 53 °F 55 °F 84 °F (2010)
Min Temperature 26 °F 35 °F 18 °F (1982)
Degree Days  
Heating Degree Days 26    
Moisture  
Dew Point 25 °F    
Average Humidity 57    
Maximum Humidity 86    
Minimum Humidity 30    
Precipitation  
Precipitation 0.00 in - - ()
Sea Level Pressure  
Sea Level Pressure 30.12 in    
Wind  
Wind Speed 1 mph (ESE)    
Max Wind Speed 8 mph    
Max Gust Speed -    
Visibility 10 miles    
Events      
Averages and records for this station are not official NWS values.
T = Trace of Precipitation, MM = Missing Value Source: NWS Daily Summary

Daily Weather History Graph

Daily Weather History Graph

Search for Another Location

Airport or City:

Trip Planner

Search our weather history database for the weather conditions in past years. The results will help you decide how hot, cold, wet, or windy it might be!

Date:

Astronomy

Apr. 06, 2014 Rise Set
Actual Time 7:15 AM EDT 8:10 PM EDT
Civil Twilight 6:47 AM EDT 8:38 PM EDT
Nautical Twilight 6:13 AM EDT 9:12 PM EDT
Astronomical Twilight 5:38 AM EDT 9:47 PM EDT
Moon 12:13 PM EDT (4/6) 2:08 AM EDT (4/6)
Length of Visible Light 13h 51m
Length of Day
12h 55m
Waxing Crescent, 43% of the Moon is Illuminated
Apr 6
Waxing Crescent
Apr 7
First Quarter
Apr 15
Full
Apr 22
Last Quarter
Apr 29
New

Hourly Weather History & Observations

Time (EDT) Temp. Windchill Dew Point Humidity Pressure Visibility Wind Dir Wind Speed Gust Speed Precip Events Conditions
12:15 AM 32.0 °F - 23.0 °F 69% 30.20 in 10.0 mi Calm Calm - N/A   Clear
12:35 AM 32.0 °F - 23.0 °F 69% 30.20 in 10.0 mi Calm Calm - N/A   Clear
12:55 AM 32.0 °F - 21.2 °F 64% 30.20 in 10.0 mi Calm Calm - N/A   Clear
1:15 AM 32.0 °F - 23.0 °F 69% 30.20 in 10.0 mi Calm Calm - N/A   Clear
1:35 AM 32.0 °F - 23.0 °F 69% 30.19 in 10.0 mi Calm Calm - N/A   Clear
1:55 AM 32.0 °F - 23.0 °F 69% 30.19 in 10.0 mi Calm Calm - N/A   Clear
2:15 AM 30.2 °F - 21.2 °F 69% 30.19 in 10.0 mi Calm Calm - N/A   Clear
2:35 AM 30.2 °F - 21.2 °F 69% 30.18 in 10.0 mi Calm Calm - N/A   Clear
2:55 AM 30.2 °F - 23.0 °F 75% 30.18 in 10.0 mi Calm Calm - N/A   Clear
3:15 AM 30.2 °F - 23.0 °F 75% 30.18 in 10.0 mi Calm Calm - N/A   Clear
3:35 AM 30.2 °F - 23.0 °F 75% 30.18 in 10.0 mi Calm Calm - N/A   Clear
3:55 AM 28.4 °F - 21.2 °F 74% 30.18 in 10.0 mi Calm Calm - N/A   Clear
4:15 AM 30.2 °F - 21.2 °F 69% 30.17 in 10.0 mi Calm Calm - N/A   Clear
4:35 AM 26.6 °F - 21.2 °F 80% 30.17 in 10.0 mi Calm Calm - N/A   Clear
4:55 AM 28.4 °F - 21.2 °F 74% 30.17 in 10.0 mi Calm Calm - N/A   Clear
5:15 AM 28.4 °F - 21.2 °F 74% 30.18 in 10.0 mi Calm Calm - N/A   Clear
5:35 AM 26.6 °F - 21.2 °F 80% 30.18 in 10.0 mi Calm Calm - N/A   Clear
5:55 AM 26.6 °F - 23.0 °F 86% 30.18 in 10.0 mi Calm Calm - N/A   Clear
6:15 AM 26.6 °F - 23.0 °F 86% 30.18 in 10.0 mi Calm Calm - N/A   Clear
6:35 AM 26.6 °F - 23.0 °F 86% 30.18 in 10.0 mi Calm Calm - N/A   Clear
6:55 AM 26.6 °F - 23.0 °F 86% 30.18 in 10.0 mi Calm Calm - N/A   Clear
7:15 AM 26.6 °F - 23.0 °F 86% 30.18 in 10.0 mi Calm Calm - N/A   Clear
7:35 AM 26.6 °F - 23.0 °F 86% 30.18 in 7.0 mi Calm Calm - N/A   Clear
7:55 AM 28.4 °F - 23.0 °F 80% 30.20 in 10.0 mi Calm Calm - N/A   Clear
8:15 AM 28.4 °F - 24.8 °F 86% 30.20 in 10.0 mi Calm Calm - N/A   Clear
8:35 AM 32.0 °F - 26.6 °F 80% 30.20 in 10.0 mi Calm Calm - N/A   Clear
8:55 AM 33.8 °F - 24.8 °F 70% 30.20 in 10.0 mi Calm Calm - N/A   Clear
9:15 AM 37.4 °F - 26.6 °F 65% 30.20 in 10.0 mi Calm Calm - N/A   Clear
9:35 AM 41.0 °F - 24.8 °F 53% 30.20 in 10.0 mi Calm Calm - N/A   Clear
9:55 AM 42.8 °F - 23.0 °F 46% 30.20 in 10.0 mi Calm Calm - N/A   Clear
10:15 AM 44.6 °F 43.1 °F 24.8 °F 46% 30.20 in 10.0 mi SSE 3.5 mph - N/A   Clear
10:35 AM 44.6 °F 42.2 °F 24.8 °F 46% 30.20 in 10.0 mi South 4.6 mph - N/A   Clear
10:55 AM 46.4 °F 45.2 °F 23.0 °F 40% 30.19 in 10.0 mi South 3.5 mph - N/A   Clear
11:15 AM 46.4 °F 44.3 °F 21.2 °F 37% 30.19 in 10.0 mi SE 4.6 mph - N/A   Clear
11:35 AM 46.4 °F 44.3 °F 21.2 °F 37% 30.19 in 10.0 mi NE 4.6 mph - N/A   Clear
11:55 AM 48.2 °F - 21.2 °F 34% 30.18 in 10.0 mi Calm Calm - N/A   Clear
12:15 PM 50.0 °F - 19.4 °F 30% 30.18 in 10.0 mi SSW 3.5 mph - N/A   Clear
12:35 PM 50.0 °F - 19.4 °F 30% 30.17 in 10.0 mi East 3.5 mph - N/A   Clear
12:55 PM 50.0 °F - 23.0 °F 35% 30.15 in 10.0 mi East 4.6 mph - N/A   Clear
1:15 PM 50.0 °F - 21.2 °F 32% 30.15 in 10.0 mi ESE 3.5 mph - N/A   Clear
1:35 PM 50.0 °F - 21.2 °F 32% 30.13 in 10.0 mi East 3.5 mph - N/A   Clear
1:55 PM 50.0 °F - 21.2 °F 32% 30.13 in 10.0 mi Calm Calm - N/A   Clear
2:15 PM 50.0 °F - 23.0 °F 35% 30.11 in 10.0 mi South 3.5 mph - N/A   Clear
2:35 PM 51.8 °F - 24.8 °F 35% 30.10 in 10.0 mi East 5.8 mph - N/A   Clear
2:55 PM 50.0 °F - 23.0 °F 35% 30.10 in 10.0 mi Calm Calm - N/A   Clear
3:15 PM 51.8 °F - 23.0 °F 33% 30.08 in 10.0 mi Calm Calm - N/A   Clear
3:35 PM 51.8 °F - 26.6 °F 38% 30.07 in 10.0 mi ENE 5.8 mph - N/A   Clear
3:55 PM 51.8 °F - 24.8 °F 35% 30.05 in 10.0 mi ESE 5.8 mph - N/A   Clear
4:15 PM 53.6 °F - 26.6 °F 35% 30.05 in 10.0 mi East 6.9 mph - N/A   Clear
4:35 PM 51.8 °F - 28.4 °F 41% 30.03 in 10.0 mi ESE 5.8 mph - N/A   Clear
4:55 PM 51.8 °F - 28.4 °F 41% 30.03 in 10.0 mi East 8.1 mph - N/A   Clear
5:15 PM 53.6 °F - 26.6 °F 35% 30.03 in 10.0 mi SE 5.8 mph - N/A   Clear
5:35 PM 51.8 °F - 28.4 °F 41% 30.05 in 10.0 mi South 8.1 mph - N/A   Clear
5:55 PM 51.8 °F - 28.4 °F 41% 30.04 in 10.0 mi ESE 4.6 mph - N/A   Clear
6:15 PM 51.8 °F - 28.4 °F 41% 30.05 in 10.0 mi ESE 8.1 mph - N/A   Clear
6:35 PM 51.8 °F - 28.4 °F 41% 30.03 in 10.0 mi East 4.6 mph - N/A   Clear
6:55 PM 51.8 °F - 28.4 °F 41% 30.01 in 10.0 mi East 3.5 mph - N/A   Clear
7:15 PM 51.8 °F - 30.2 °F 44% 30.01 in 10.0 mi East 5.8 mph - N/A   Clear
7:35 PM 51.8 °F - 28.4 °F 41% 30.02 in 10.0 mi ESE 5.8 mph - N/A   Clear
7:55 PM 50.0 °F - 30.2 °F 47% 30.02 in 10.0 mi East 4.6 mph - N/A   Clear
8:15 PM 48.2 °F - 30.2 °F 50% 30.01 in 10.0 mi East 3.5 mph - N/A   Clear
8:35 PM 44.6 °F - 32.0 °F 61% 30.01 in 10.0 mi Calm Calm - N/A   Clear
8:55 PM 44.6 °F - 32.0 °F 61% 30.01 in 10.0 mi Calm Calm - N/A   Clear
9:15 PM 42.8 °F 41.1 °F 32.0 °F 66% 30.02 in 10.0 mi ENE 3.5 mph - N/A   Clear
9:35 PM 44.6 °F - 32.0 °F 61% 30.02 in 10.0 mi Calm Calm - N/A   Clear
9:55 PM 44.6 °F 43.1 °F 32.0 °F 61% 30.01 in 10.0 mi East 3.5 mph - N/A   Clear
10:15 PM 42.8 °F 41.1 °F 32.0 °F 66% 30.01 in 10.0 mi East 3.5 mph - N/A   Clear
10:35 PM 42.8 °F - 30.2 °F 61% 30.01 in 10.0 mi Calm Calm - N/A   Clear
10:55 PM 42.8 °F - 30.2 °F 61% 30.01 in 10.0 mi Calm Calm - N/A   Clear
11:15 PM 39.2 °F 34.2 °F 32.0 °F 75% 30.00 in 10.0 mi ENE 6.9 mph - N/A   Clear
11:35 PM 39.2 °F 35.0 °F 32.0 °F 75% 29.99 in 10.0 mi East 5.8 mph - N/A   Clear
11:55 PM 41.0 °F 38.0 °F 32.0 °F 70% 29.99 in 10.0 mi East 4.6 mph - N/A   Clear